^^
Meteo Knjazevac Station Historical Data
Daily Summary for September 21, 2021 Units:  English    Metric   Both
Daily Weekly Monthly Yearly Custom
  High: Low: Average:
Temperature: 35.1 °F 33.6 °F 34.5 °F
Dew Point: 29.5 °F 28.8 °F 29.1 °F
Humidity: 84% 79% 81%
Wind Speed: 9mph 6mph 7mph
Wind Gust: 19mph - -
Wind- - WSW
Pressure: 30.18 in 30.16 in -
Precipitation: 0.00 in    
Historical Graphs
 
 
Tabular Data for September 21, 2021
Time Temperature Dew Point Pressure Wind Wind Speed Wind Gust Humidity Rainfall Rate (Hourly) solar Conditions
00:00 35.1 °F 29.5 °F 30.16 in WSW 7 mph 13 mph 80% 0.00 in 0 W/m2
00:10 35.1 °F 29.5 °F 30.16 in WSW 7 mph 12 mph 80% 0.00 in 0 W/m2
00:20 35.1 °F 29.5 °F 30.16 in WSW 7 mph 14 mph 80% 0.00 in 0 W/m2
00:30 35.1 °F 29.2 °F 30.16 in West 6 mph 13 mph 79% 0.00 in 0 W/m2
00:40 34.9 °F 29.1 °F 30.17 in WSW 6 mph 13 mph 79% 0.00 in 0 W/m2
00:50 34.9 °F 29 °F 30.17 in WSW 7 mph 13 mph 79% 0.00 in 0 W/m2
01:00 34.9 °F 29 °F 30.17 in WSW 6 mph 12 mph 79% 0.00 in 0 W/m2
01:10 34.9 °F 29 °F 30.17 in WSW 6 mph 11 mph 79% 0.00 in 0 W/m2
01:20 34.9 °F 29 °F 30.17 in WSW 6 mph 13 mph 79% 0.00 in 0 W/m2
01:30 34.7 °F 28.9 °F 30.17 in WSW 6 mph 12 mph 79% 0.00 in 0 W/m2
01:40 34.7 °F 28.9 °F 30.17 in WSW 8 mph 14 mph 79% 0.00 in 0 W/m2
01:50 34.5 °F 29 °F 30.17 in WSW 8 mph 19 mph 80% 0.00 in 0 W/m2
02:00 34.5 °F 29.3 °F 30.18 in WSW 8 mph 14 mph 81% 0.00 in 0 W/m2
02:10 34.2 °F 28.9 °F 30.18 in WSW 8 mph 13 mph 81% 0.00 in 0 W/m2
02:20 34.2 °F 28.9 °F 30.18 in WSW 8 mph 13 mph 81% 0.00 in 0 W/m2
02:30 34 °F 28.8 °F 30.18 in WSW 8 mph 12 mph 81% 0.00 in 0 W/m2
02:40 34 °F 29.1 °F 30.18 in WSW 7 mph 15 mph 82% 0.00 in 0 W/m2
02:50 33.8 °F 29.2 °F 30.18 in WSW 8 mph 13 mph 83% 0.00 in 0 W/m2
03:00 33.8 °F 29.2 °F 30.18 in WSW 6 mph 13 mph 83% 0.00 in 0 W/m2
03:10 33.8 °F 29.4 °F 30.18 in WSW 6 mph 15 mph 84% 0.00 in 0 W/m2
03:20 33.6 °F 29.3 °F 30.18 in WSW 7 mph 13 mph 84% 0.00 in 0 W/m2
03:30 33.6 °F 29 °F 30.18 in WSW 9 mph 14 mph 83% 0.00 in 0 W/m2
Knjazevac, Serbia
Compliments of Weather Underground - 2 mb